Regional Weather Roundup
Issued by NWS

Home | Current Version | Previous Version | Text Only | Print | Product List | Glossary On
Versions: 1 2 3 4 5 6 7 8 9 10 11 12 13 14 15 16 17 18 19 20 21 22 23 24 25 26 27 28 29 30 31 32 33 34 35 36 37 38 39 40 41 42 43 44 45 46 47 48 49 50
000
ASUS43 KDMX 301107
RWRIA

WEATHER ROUNDUP FOR IOWA
NATIONAL WEATHER SERVICE DES MOINES IA
600 AM CDT THU JUL 30 2015

NOTE: "FAIR" INDICATES FEW OR NO CLOUDS BELOW 12,000 FEET WITH NO
SIGNIFICANT WEATHER AND/OR OBSTRUCTIONS TO VISIBILITY.

* - THESE STATIONS ARE NOT NWS STATIONS...THUS NOT UNDER NWS
QUALITY CONTROL.  THEY ALSO DO NOT REPORT WEATHER SUCH
AS PRECIPITATION OR FOG.

IAZ001>003-012>014-020>022-031>034-043>046-301200-
   NORTHWEST IOWA

CITY           SKY/WX    TMP DP  RH WIND       PRES   REMARKS
CARROLL *      CLEAR     63  59  88 W10       30.15S
CHEROKEE *       N/A     57  57 100 CALM      30.14S FOG
DENISON *      CLEAR     61  57  88 CALM      30.15S
LE MARS *      CLEAR     59  57  94 S3        30.15R
ORANGE CITY *  CLEAR     57  55  94 CALM      30.14S
SHELDON *      PTCLDY    54  54 100 S5        30.13R
SIOUX CITY     CLEAR     64  57  78 CALM      30.15R
SPENCER        CLEAR     56  52  86 CALM      30.13S
STORM LAKE *   CLEAR     59  57  94 W9        30.15S
$$

IAZ055>058-069>071-079>083-090>094-301200-
   SOUTHWEST IOWA

CITY           SKY/WX    TMP DP  RH WIND       PRES   REMARKS
ATLANTIC *     CLEAR     59  59 100 S5        30.18S
AUDUBON *      CLEAR     61  55  82 SW5       30.18S
CLARINDA *     PTCLDY    59  59 100 CALM      30.20S FOG
COUNCIL BLFS * CLEAR     64  59  82 CALM      30.18S
CRESTON *      CLEAR     63  59  88 W7        30.18S
HARLAN  *      CLEAR     57  57 100 CALM      30.21S FOG
LAMONI         CLEAR     65  57  75 W8        30.17S
RED OAK *      PTCLDY    59  59 100 CALM      30.18S FOG
SHENANDOAH *   CLEAR     61  59  94 CALM      30.19S
$$

IAZ047>049-059>061-072>074-084-301200-
   CENTRAL IOWA

CITY           SKY/WX    TMP DP  RH WIND       PRES   REMARKS
AMES           CLEAR     60  57  89 W5        30.13S
ANKENY *       CLEAR     64  57  77 W8        30.14R
CHARITON *     CLEAR     64  57  77 W7        30.15S
DES MOINES     CLEAR     64  56  75 W6        30.14S
GRINNELL*      CLEAR     59  57  94 W3        30.14S
KNOXVILLE *    CLEAR     61  57  88 W6        30.13S
MARSHALLTOWN     N/A     60  57  89 W7        30.12S
PELLA *        CLEAR     63  61  94 CALM      30.15R
PERRY *          N/A     61  57  88 W8        30.15S
$$

IAZ004>006-015-016-023>025-035-036-301200-
   NORTH CENTRAL IOWA

CITY           SKY/WX    TMP DP  RH WIND       PRES   REMARKS
ALGONA *       CLEAR     61  59  94 W8        30.12F
CLARION *      CLEAR     55  55 100 S3        30.13R
ESTHERVILLE    CLEAR     57  56  96 W6        30.12R
FORT DODGE *   CLEAR     59  55  88 S3        30.14S
MASON CITY     CLEAR     62  58  86 W8        30.12S
FOREST CITY *  CLEAR     57  55  94 SW3       30.11S
IOWA FALLS *     N/A     61  57  88 NW5       30.13R
$$

IAZ007>011-017>019-026>030-037>042-050>054-066-301200-
   NORTHEAST IOWA

CITY           SKY/WX    TMP DP  RH WIND       PRES   REMARKS
CEDAR RAPIDS   CLEAR     61  60  97 W8        30.10S
CHARLES CITY * CLEAR     59  59 100 W5        30.11S
CLINTON *      CLEAR     57  55  94 NW6       30.11R
DECORAH *      CLEAR     61  57  88 VRB3      30.08R
DUBUQUE        CLEAR     63  58  83 W7        30.09R
MONTICELLO *   CLEAR     61  59  94 NW5       30.09S
OELWEIN *        N/A     59  57  94 CALM      30.11R
WATERLOO       CLEAR     60  58  92 CALM      30.09S
$$

IAZ064-065-067-068-078-301200-
   EAST CENTRAL IOWA

CITY           SKY/WX    TMP DP  RH WIND       PRES   REMARKS
DAVENPORT      CLEAR     61  58  90 W6        30.10R
IOWA CITY      CLEAR     63  59  87 W7        30.12S
MT. PLEASANT * CLEAR     64  59  82 W5        30.13S
MUSCATINE *    CLEAR     64  59  82 W6        30.11S
QUAD CITIES    CLEAR     61  57  87 SW5       30.10R
$$

IAZ062-063-075>077-085>089-095>099-301200-
   SOUTHEAST IOWA

CITY           SKY/WX    TMP DP  RH WIND       PRES   REMARKS
BURLINGTON     CLEAR     64  60  87 NW5       30.13R
FAIRFIELD *    CLEAR     63  57  82 W6        30.14R
FORT MADISON * CLEAR     63  59  88 W6        30.14R
KEOKUK *       CLEAR     64  61  88 W3        30.13R
OSKALOOSA *      N/A     59  57  94 CALM      30.14S
CENTERVILLE *  CLEAR     63  57  82 W5        30.17R
OTTUMWA        CLEAR     62  58  86 W7        30.12S
WASHINGTON *   CLEAR     63  59  88 W8        30.14R
$$

ABBREVIATIONS USED IN REMARKS
   TC - TEMPERATURES IN CELSIUS
  WCI - WIND CHILL INDEX
   HX - HEAT INDEX
  VSB - VISIBILITY
$$



USA.gov is the U.S. government's official web portal to all federal, state and local government web resources and services.